www.pogodaiklimat.ru

Погода и климат >> Архив погоды >> Япония >> Сукумо


ПОГОДА в Сукумо

  • Прогноз погоды в Сукумо
  • Монитор погоды в Сукумо

АРХИВ ПОГОДЫ в Сукумо

Время (UTC), дата Ветер
(напр.,м/с)
 
Видим.   Явления Облачность Т
(С)
Тd
(С)
f
(%)
Тe
(С)
Тes
(С)
Комфортность P
(гПа)
Po
(гПа)
Тmin
(С)
Tmax
(С)
R
(мм)
R24
(мм)
S
(см)
04 15.08 З 5 2300 м дождь н/о +26.2 +26.0 99 +39 +39 очень
душно
980.6 979.4
05 15.08 ЮЗ 7 4900 м слаб. дождь н/о +27.7 +26.1 91 +42 +42 опасность
перегрева
981.5 980.3
06 15.08 ЮЗ 7 5000 м слаб. дождь н/о +27.5 +26.3 93 +42 +42 опасность
перегрева
982.4 981.2 9
07 15.08 ЮЗ 7 3500 м слаб. дождь н/о +27.0 +26.1 95 +41 +41 опасность
перегрева
983.4 982.2
08 15.08 ЮЗ 7 3600 м слаб. дождь н/о +27.4 +26.0 92 +41 +41 опасность
перегрева
984.7 983.5
09 15.08 ЮЗ 7 3300 м дождь н/о +27.3 +26.1 93 +41 +41 опасность
перегрева
986.1 984.9
10 15.08 ЮЗ 6 4200 м слаб. дождь н/о +27.3 +26.1 93 +41 +41 опасность
перегрева
987.6 986.4
11 15.08 ЮЗ 6 2400 м сильн. дождь н/о +27.2 +26.2 94 +41 +41 опасность
перегрева
989.4 988.2
12 15.08 ЮЗ 5 4300 м дождь н/о +27.3 +26.1 93 +41 +41 опасность
перегрева
990.5 989.3 +28.8 37
13 15.08 З 7 7000 м слаб. дождь н/о +27.9 +25.9 89 +42 +42 опасность
перегрева
991.5 990.3
14 15.08 З 7 9000 м в посл. час дождь н/о +28.1 +25.5 86 +41 +41 опасность
перегрева
992.1 990.9
15 15.08 З 6 8000 м дымка {дождь} н/о +27.8 +25.6 88 +41 +41 опасность
перегрева
993.0 991.8
16 15.08 З 7 9000 м дымка н/о +27.8 +25.2 86 +40 +40 очень
душно
993.6 992.4
17 15.08 З 7 9000 м дымка н/о +27.7 +25.0 85 +40 +40 очень
душно
994.3 993.1
18 15.08 З 4 9000 м дымка {дождь} н/о +27.5 +25.0 86 +39 +39 очень
душно
995.4 994.2 1
19 15.08 З 5 9000 м дымка н/о +27.6 +25.1 86 +40 +40 очень
душно
996.1 994.9
20 15.08 З 3 10 км н/о +27.6 +25.1 86 +40 +40 очень
душно
996.6 995.4
21 15.08 З 4 9000 м дымка н/о +27.3 +25.1 88 +39 +39 очень
душно
997.4 996.2
22 15.08 З 4 12 км н/о +27.4 +24.9 86 +39 +39 очень
душно
998.0 996.8
23 15.08 ЮЗ 3 13 км н/о +27.9 +25.0 84 +40 +40 очень
душно
998.6 997.4
00 16.08 Ю 2 15 км н/о +28.9 +25.1 80 +42 +42 опасность
перегрева
999.1 997.9 +27.0 1
01 16.08 З 3 16 км н/о +29.1 +24.9 78 +42 +42 опасность
перегрева
999.5 998.3
02 16.08 З 2 15 км н/о +28.8 +24.8 79 +41 +41 опасность
перегрева
999.7 998.5
03 16.08 З 3 16 км н/о +29.1 +24.9 78 +42 +42 опасность
перегрева
999.7 998.5
04 16.08 З 4 15 км н/о +29.8 +25.3 77 +44 +44 опасность
перегрева
999.5 998.3
05 16.08 З 3 16 км н/о +29.9 +24.8 74 +43 +43 опасность
перегрева
999.6 998.4
06 16.08 З 5 14 км н/о +30.3 +25.2 74 +44 +44 опасность
перегрева
999.4 998.2
07 16.08 З 4 14 км н/о +30.3 +25.2 74 +44 +44 опасность
перегрева
999.3 998.1
08 16.08 З 3 14 км н/о +30.0 +25.3 76 +44 +44 опасность
перегрева
999.8 998.6
09 16.08 З 2 12 км н/о +29.7 +25.5 78 +44 +44 опасность
перегрева
1000.2 999.0
11 16.08 СВ 1 10 км н/о +27.5 +25.5 89 +40 +40 очень
душно
1001.5 1000.3
12 16.08 СВ 2 9000 м дымка н/о +26.7 +25.1 91 +38 +38 очень
душно
1001.8 1000.6 +30.9
13 16.08 С 1 8000 м дымка н/о +26.3 +25.3 94 +38 +38 очень
душно
1001.8 1000.6
15 16.08 В 1 9000 м дымка н/о +25.8 +24.8 94 +37 +37 очень
душно
1002.2 1001.0
16 16.08 В 2 9000 м дымка н/о +25.4 +24.5 95 +36 +36 очень
душно
1002.1 1000.9
17 16.08 В 1 8000 м дымка н/о +25.1 +24.4 96 +35 +35 очень
душно
1002.3 1001.1
18 16.08 В 1 8000 м дымка н/о +24.7 +24.0 96 +34 +34 очень
душно
1002.7 1001.5
19 16.08 СВ 2 9000 м дымка н/о +24.6 +23.9 96 +34 +34 очень
душно
1003.0 1001.8
20 16.08 СВ 2 9000 м дымка н/о +24.0 +23.3 96 +32 +32 очень
душно
1003.2 1002.0
21 16.08 СВ 1 10 км н/о +23.8 +23.0 95 +32 +32 очень
душно
1004.0 1002.8
22 16.08 В 2 14 км н/о +25.0 +23.1 89 +33 +33 очень
душно
1004.3 1003.1
23 16.08 В 1 16 км н/о +26.9 +23.2 80 +36 +36 очень
душно
1004.7 1003.5
00 17.08 Ю 2 19 км н/о +28.1 +22.1 70 +37 +37 очень
душно
1004.5 1003.3 +23.8
01 17.08 ЮЗ 3 16 км н/о +28.8 +22.3 68 +38 +38 очень
душно
1004.4 1003.2
02 17.08 ЮЗ 3 17 км н/о +29.8 +23.3 68 +40 +40 очень
душно
1004.3 1003.1
03 17.08 Ю 4 15 км н/о +29.7 +23.4 69 +40 +40 очень
душно
1004.0 1002.8
04 17.08 ЮЗ 3 20 км н/о +31.7 +22.4 58 +41 +41 опасность
перегрева
1003.7 1002.5
05 17.08 ЮЗ 4 20 км н/о +32.1 +22.5 57 +42 +42 опасность
перегрева
1003.5 1002.3
06 17.08 ЮЗ 4 20 км н/о +32.1 +22.8 58 +42 +42 опасность
перегрева
1003.2 1002.0
07 17.08 Ю 4 20 км н/о +30.3 +23.7 68 +41 +41 опасность
перегрева
1003.3 1002.1
08 17.08 ЮЗ 3 16 км н/о +30.0 +23.9 70 +41 +41 опасность
перегрева
1003.4 1002.2
09 17.08 ЮЗ 3 16 км н/о +29.1 +24.2 75 +41 +41 опасность
перегрева
1003.7 1002.5
10 17.08 ЮЗ 3 15 км н/о +28.1 +24.3 80 +39 +39 очень
душно
1004.2 1003.0
13 17.08 С 1 9000 м дымка н/о +25.5 +23.6 89 +35 +35 очень
душно
1005.8 1004.6
14 17.08 СВ 1 9000 м дымка н/о +25.3 +23.4 89 +34 +34 очень
душно
1005.9 1004.7
15 17.08 СВ 3 11 км н/о +24.8 +22.9 89 +33 +33 очень
душно
1006.0 1004.8
16 17.08 СВ 2 9000 м дымка н/о +24.4 +23.0 92 +32 +32 очень
душно
1006.0 1004.8
06 19.08 В 3 8000 м слаб. дождь н/о +25.2 +23.3 89 +34 +34 очень
душно
1008.5 1007.3 6
09 19.08 В 3 16 км {дождь} н/о +25.8 +23.7 88 +35 +35 очень
душно
1008.6 1007.4
10 19.08 В 2 18 км н/о +25.7 +23.6 88 +35 +35 очень
душно
1009.1 1007.9
11 19.08 В 1 17 км н/о +25.7 +23.8 89 +35 +35 очень
душно
1009.6 1008.4
12 19.08 СВ 1 18 км в посл. час дождь н/о +25.9 +23.8 88 +35 +35 очень
душно
1010.0 1008.8 +26.0 7
13 19.08 ЮВ 1 16 км н/о +25.5 +23.9 91 +35 +35 очень
душно
1009.7 1008.5
14 19.08 ЮВ 2 14 км н/о +25.3 +23.9 92 +35 +35 очень
душно
1009.9 1008.7
15 19.08 В 2 14 км н/о +25.5 +24.3 93 +35 +35 очень
душно
1010.0 1008.8
16 19.08 В 2 6000 м слаб. дождь н/о +25.8 +24.6 93 +36 +36 очень
душно
1009.7 1008.5
17 19.08 В 1 2800 м слаб. дождь н/о +25.4 +24.9 97 +36 +36 очень
душно
1009.6 1008.4
18 19.08 СВ 3 4900 м слаб. дождь н/о +25.3 +25.0 98 +36 +36 очень
душно
1009.2 1008.0 2
19 19.08 СВ 3 17 км слаб. дождь н/о +25.4 +24.7 96 +36 +36 очень
душно
1009.3 1008.1
20 19.08 ЮЗ 5 1700 м слаб. дождь н/о +26.9 +26.0 95 +40 +40 очень
душно
1009.6 1008.4
21 19.08 В 2 12 км слаб. дождь н/о +25.9 +25.4 97 +38 +38 очень
душно
1009.9 1008.7
22 19.08 С 1 14 км слаб. дождь н/о +26.3 +26.0 98 +39 +39 очень
душно
1010.3 1009.1
23 19.08 ЮЗ 3 16 км в посл. час дождь н/о +28.3 +25.9 87 +42 +42 опасность
перегрева
1010.5 1009.3
00 20.08 ЮЗ 4 17 км {дождь} н/о +29.0 +26.0 84 +44 +44 опасность
перегрева
1010.9 1009.7 +25.2 15
01 20.08 ЮЗ 3 16 км н/о +29.1 +26.3 85 +44 +44 опасность
перегрева
1010.9 1009.7
02 20.08 ЮЗ 3 16 км н/о +29.3 +26.3 84 +45 +45 опасность
перегрева
1010.7 1009.5
03 20.08 З 5 15 км н/о +29.2 +26.2 84 +44 +44 опасность
перегрева
1010.3 1009.1
04 20.08 ЮЗ 4 15 км н/о +29.2 +26.2 84 +44 +44 опасность
перегрева
1010.4 1009.2
05 20.08 ЮЗ 4 11 км н/о +29.4 +26.4 84 +45 +45 опасность
перегрева
1010.2 1009.0
06 20.08 З 4 15 км н/о +29.3 +26.5 85 +45 +45 опасность
перегрева
1010.1 1008.9
07 20.08 З 4 15 км н/о +29.5 +26.5 84 +45 +45 опасность
перегрева
1010.0 1008.8
08 20.08 ЮЗ 1 17 км н/о +29.0 +26.4 86 +44 +44 опасность
перегрева
1009.9 1008.7
10 20.08 ЮВ 2 15 км в посл. час дождь н/о +28.0 +26.0 89 +42 +42 опасность
перегрева
1010.8 1009.6
11 20.08 ЮВ 1 15 км н/о +27.8 +26.2 91 +42 +42 опасность
перегрева
1011.2 1010.0
12 20.08 ЮВ 1 13 км {дождь} н/о +27.1 +26.1 94 +41 +41 опасность
перегрева
1011.7 1010.5 +29.8 0.0
13 20.08 СВ 1 10 км н/о +26.7 +26.0 96 +40 +40 очень
душно
1011.8 1010.6
14 20.08 С 1 12 км н/о +26.6 +25.9 96 +40 +40 очень
душно
1011.6 1010.4
15 20.08 штиль 0 11 км н/о +26.3 +25.8 97 +39 +39 очень
душно
1011.5 1010.3
16 20.08 Ю 2 14 км н/о +26.8 +25.4 92 +39 +39 очень
душно
1010.8 1009.6
17 20.08 ЮВ 1 14 км н/о +26.1 +25.4 96 +38 +38 очень
душно
1010.7 1009.5
18 20.08 В 1 14 км н/о +25.9 +25.2 96 +37 +37 очень
душно
1010.7 1009.5
20 20.08 Ю 1 11 км н/о +25.6 +25.3 98 +37 +37 очень
душно
1010.8 1009.6
22 20.08 С 1 18 км н/о +27.0 +25.4 91 +39 +39 очень
душно
1011.1 1009.9
23 20.08 ЮВ 1 18 км н/о +28.8 +25.8 84 +43 +43 опасность
перегрева
1011.1 1009.9
00 21.08 З 2 20 км н/о +29.0 +24.8 78 +41 +41 опасность
перегрева
1011.6 1010.4 +25.4
01 21.08 З 3 20 км н/о +29.2 +24.5 76 +41 +41 опасность
перегрева
1011.9 1010.7
02 21.08 З 4 20 км н/о +29.4 +24.7 76 +42 +42 опасность
перегрева
1012.0 1010.8
03 21.08 З 3 20 км н/о +29.7 +25.7 79 +44 +44 опасность
перегрева
1011.5 1010.3
05 21.08 З 4 20 км н/о +30.7 +25.5 74 +45 +45 опасность
перегрева
1010.6 1009.4
06 21.08 З 4 20 км н/о +30.4 +25.2 74 +44 +44 опасность
перегрева
1010.0 1008.8
07 21.08 З 3 20 км н/о +29.3 +25.3 79 +43 +43 опасность
перегрева
1010.1 1008.9
09 21.08 Ю 2 20 км н/о +28.6 +25.2 82 +42 +42 опасность
перегрева
1010.5 1009.3
10 21.08 Ю 2 20 км н/о +27.5 +25.1 87 +40 +40 очень
душно
1010.9 1009.7
11 21.08 штиль 0 20 км н/о +27.0 +25.6 92 +40 +40 очень
душно
1011.6 1010.4
12 21.08 СВ 1 20 км н/о +26.5 +25.5 94 +39 +39 очень
душно
1012.1 1010.9 +31.2
13 21.08 С 1 20 км н/о +26.4 +25.2 93 +38 +38 очень
душно
1012.2 1011.0
15 21.08 С 1 20 км н/о +26.1 +25.2 95 +38 +38 очень
душно
1011.5 1010.3
16 21.08 СВ 1 17 км н/о +26.0 +25.3 96 +38 +38 очень
душно
1011.1 1009.9
17 21.08 СВ 1 20 км н/о +26.0 +25.3 96 +38 +38 очень
душно
1010.9 1009.7
18 21.08 В 1 19 км н/о +25.9 +25.0 95 +37 +37 очень
душно
1010.7 1009.5
19 21.08 Ю 1 19 км н/о +25.7 +25.0 96 +37 +37 очень
душно
1010.5 1009.3
20 21.08 ЮВ 1 20 км в посл. час дождь н/о +26.3 +25.1 93 +38 +38 очень
душно
1010.7 1009.5
22 21.08 В 1 20 км н/о +27.3 +25.1 88 +39 +39 очень
душно
1011.1 1009.9
23 21.08 З 2 20 км н/о +28.3 +24.7 81 +40 +40 очень
душно
1011.3 1010.1
00 22.08 З 3 20 км {дождь} н/о +29.3 +25.3 79 +43 +43 опасность
перегрева
1011.2 1010.0 +25.7 0.0
01 22.08 З 4 20 км н/о +29.5 +24.8 76 +42 +42 опасность
перегрева
1011.3 1010.1
02 22.08 З 5 20 км н/о +30.3 +25.2 74 +44 +44 опасность
перегрева
1011.1 1009.9

 

Местоположение метеостанции Сукумо (Япония): широта 32.92 долгота 132.70 высота над уровнем моря 11 м.

В архиве по умолчанию представлена погода в Сукумо за последнюю неделю. Архивные данные за месяц целиком и за предыдущие месяцы, начиная с января 2011 года, Вы можете получить, выбрав интересующий диапазон дат из раскрывающегося списка и нажав кнопку "Ввод!".


*Определитесь, кто Вы:
робот инопланетянин человек

Внимание! Время в таблицах - всемирное. Для получения местного времени необходимо прибавить поправку, которая равна 9 ч.

Смотрите также архив погоды в соседних городах и на ближайших метеорологических станциях:

Погода в Симидзу (Япония) (37 км)
Погода в Увадзиме (Япония) (37 км)
Погода в Мацуяме (Япония) (104 км)
Погода в Нобеоке (Япония) (105 км)
Погода в Коти (Япония) (107 км)
Погода в Оите (Япония) (107 км)
Погода в Муротомисаки (Япония) (143 км)
Погода в Куре (Япония) (146 км)
Погода на Асо (Япония) (153 км)
Погода в Миядзаки (Япония) (164 км)

Пояснения к столбцам:

Ветер - указаны скорость ветра в м/с - средняя за 10 мин, порывы в срок и между сроками (в фигурных скобках) и направление, откуда дует ветер: С - северный, СВ - северо-восточный, В - восточный, ЮВ - юго-восточный, Ю - южный, ЮЗ - юго-западный, З - западный, СЗ - северо-западный.
Видимость - горизонтальная дальность видимости в метрах или километрах. При видимости от 1 до 10 км при отсутствии осадков обычно наблюдается дымка, при ухудшении видимости до 1 км и менее - туман. В сухую погоду видимость может ухудшаться дымом, пылью или мглою.
Явления - указаны атмосферные явления, наблюдавшиеся в срок или в последний час перед сроком; фигурными скобками обозначены явления, наблюдавшиеся между сроками (за 1-3 часа до срока); квадратными скобками обозначены град или гололедные отложения с указанием их диаметра в мм.
Облачность - указаны через наклонную черту общая и нижняя облачность в баллах и высота нижней границы облаков в метрах; квадратными скобками обозначены формы облаков: Ci - перистые, Cs - перисто-слоистые, Cc - перисто-кучевые, Ac - высококучевые, As - высокослоистые, Sc - слоисто-кучевые, Ns - слоисто-дождевые, Cu - кучевые, Cb - кучево-дождевые. Подробнее классификацию облаков см. в Атласе облаков (PDF).
T - Температура воздуха - температура, измеренная на высоте 2 м над землей.
Td - Температура точки росы - температура, при понижении до которой содержащийся в воздухе водяной пар достигнет насыщения.
f - Относительная влажность воздуха - влажноcть воздуха, измеренная на высоте 2 м над землей.
Te - Эффективная температура - температура, которую ощущает одетый по сезону человек в тени. Характеристика душности погоды. При расчете учитывается влияние влажности воздуха и скорости ветра на теплоощущения человека.
Tes - Эффективная температура на солнце - температура, которую ощущает человек, с поправкой на солнечный нагрев. Характеристика знойности погоды. Зависит от высоты солнца над горизонтом, облачности и скорости ветра. Ночью, в пасмурную погоду, а также при ветре 12 м/с и более поправка равна нулю.
P - Атмосферное давление - приведенное к уровню моря атмосферное давление.
Po - Атмосферное давление - измеренное на уровне метеостанции атмосферное давление.
Tmin - Минимальная температура - минимум температуры воздуха на высоте 2 м над землей.
Tmax - Максимальная температура - максимум температуры воздуха на высоте 2 м над землей.
R - Количество осадков - Количество выпавших осадков за период времени, мм. При наведении курсора мыши на число - период времени, за который выпало указанное количество осадков.
R24 - Количество осадков - Количество выпавших осадков за 24 часа, мм.
S - Снежный покров - Высота снежного покрова, см. При наведении курсора мыши на число - состояние снежного покрова и степень покрытия местности в баллах.